RH
19 19 19 19 19 20 20 20 21 21 21 21 20 18 16 13 10 7 4 3 3 5 5 5 4 3 3 3 3 3 4 4 3 3 3 3 3 3 3 3 4 3 3 3 3 3 3 3 3 3 2 1
19 19 20 20 20 20 20 20 21 21 22 22 22 22 21 19 17 14 10 7 5 3 3 5 6 5 4 3 3 3 4 4 4 4 3 3 3 3 4 4 4 4 4 4 3 3 3 3 3 3 3 3
19 19 20 20 20 21 21 21 21 22 22 22 23 23 23 23 22 20 17 14 9 5 3 3 5 7 6 4 4 3 3 4 4 4 4 4 4 4 4 4 4 5 5 5 4 4 4 4 4 4 3 3
19 20 20 20 21 21 21 21 21 22 22 23 23 24 24 24 25 24 22 20 15 11 7 4 4 5 7 7 5 4 4 3 4 4 4 4 4 4 4 4 4 5 5 5 5 4 4 4 4 4 4 4
19 19 20 20 20 20 21 21 22 22 22 23 23 23 24 25 25 25 25 24 21 18 14 10 6 4 5 7 7 6 5 4 4 3 4 4 4 4 4 4 4 4 5 5 6 5 5 5 5 5 4 4
19 20 20 20 20 20 21 21 22 22 22 23 23 23 24 24 25 25 26 26 25 24 21 17 12 7 5 5 7 8 7 5 4 4 4 4 4 4 4 4 4 4 4 5 5 5 6 6 6 6 5 5
19 20 20 20 20 20 20 21 21 22 23 23 23 24 24 24 24 25 25 26 27 27 25 22 17 12 8 5 6 7 8 8 6 5 4 4 4 5 5 5 5 4 4 5 5 5 5 6 6 6 6 6
20 20 20 21 20 21 21 21 22 22 23 23 24 24 24 24 24 24 24 25 26 28 27 26 22 18 13 9 6 6 8 9 9 7 5 4 4 5 5 5 5 5 5 5 5 5 5 5 5 6 6 7
21 21 21 21 21 22 22 22 22 23 23 23 24 24 24 24 24 24 24 25 25 26 28 28 27 23 19 14 9 7 7 9 10 9 7 6 4 5 5 5 6 6 6 5 6 6 6 6 6 6 6 6
22 22 22 22 22 23 22 23 23 23 23 24 24 24 24 24 24 24 24 24 24 25 26 28 28 27 24 19 12 8 7 8 10 11 10 7 6 5 6 7 8 8 7 7 7 7 7 7 7 7 6 6
23 23 24 23 24 24 23 24 24 24 24 24 24 24 24 25 24 25 24 25 24 25 25 26 27 28 28 24 17 11 7 6 9 12 12 10 8 6 7 8 9 10 10 9 9 8 8 8 8 8 7 7
24 24 24 24 24 24 25 25 24 24 25 24 25 24 25 25 25 25 25 25 25 25 25 25 26 27 28 28 23 16 11 8 8 10 12 12 10 8 8 9 11 12 11 11 11 10 10 9 9 8 8 7
24 24 24 25 25 25 26 25 25 25 26 25 25 25 25 26 26 26 26 26 26 25 25 25 25 26 27 28 27 24 18 12 9 9 10 13 12 10 9 10 11 12 12 11 12 11 10 10 9 9 8 8
25 25 25 26 26 27 27 27 28 28 27 27 26 26 27 27 26 26 26 27 27 26 26 26 25 26 26 27 28 28 25 17 12 9 9 11 13 12 10 9 10 11 13 12 11 12 11 11 10 10 9 8
27 27 27 28 29 30 30 30 30 30 29 29 28 29 29 29 28 28 27 27 28 28 27 27 26 26 26 27 27 28 28 23 16 11 9 10 12 13 11 10 10 11 12 11 12 12 12 12 11 11 10 9
29 30 30 31 32 32 33 33 33 33 32 32 32 32 32 32 31 30 30 29 29 29 29 28 27 27 27 27 28 27 27 27 23 17 12 9 11 14 13 11 10 11 12 12 12 13 13 13 12 12 11 10
31 32 33 34 35 35 36 36 36 36 35 35 35 35 35 35 34 33 33 32 32 31 31 30 29 28 27 28 29 28 27 27 26 23 17 11 10 13 14 13 11 11 12 12 13 13 13 13 13 12 12 12
35 36 37 37 38 39 39 39 39 38 38 38 38 38 38 37 37 36 35 35 34 34 33 32 31 29 29 29 29 29 28 26 25 24 20 13 10 12 15 15 13 12 12 12 13 13 13 13 13 12 13 14
40 41 42 42 42 43 42 42 41 41 40 40 40 40 40 39 39 38 38 37 37 37 36 34 34 32 31 30 29 30 28 26 23 21 19 14 11 13 16 16 15 14 12 13 13 13 14 13 13 13 13 14
43 44 46 46 45 45 45 45 44 44 43 42 43 42 41 41 41 40 40 40 39 39 38 37 36 35 33 32 30 30 29 26 23 19 17 15 13 14 16 17 16 15 14 13 14 14 14 13 13 13 13 15
41 46 48 48 47 47 47 47 46 45 45 45 45 44 44 43 42 42 41 41 41 40 40 39 38 37 35 34 32 30 29 26 22 17 16 16 15 15 17 18 17 16 15 14 14 14 14 13 13 13 14 16
42 48 51 50 48 48 49 49 49 48 48 48 48 47 46 46 45 45 43 43 42 41 41 40 39 39 37 36 34 32 30 28 24 18 14 16 17 16 17 19 18 17 16 15 15 15 15 14 14 14 15 16
47 51 54 53 50 50 52 53 54 54 54 54 53 54 53 52 51 50 49 48 47 45 43 42 41 40 39 38 37 35 33 31 27 20 14 14 17 18 17 19 19 19 17 16 16 15 15 14 14 15 15 16
47 53 55 54 52 52 53 55 57 56 56 57 57 56 54 52 51 50 50 49 49 49 48 47 45 43 41 40 39 37 36 34 31 24 16 13 16 18 18 18 19 20 19 18 17 16 15 16 15 15 16 17
42 46 49 48 46 48 48 49 51 49 49 52 52 50 48 46 46 46 45 45 46 47 48 49 49 48 45 42 40 39 37 36 34 29 20 13 15 19 19 19 19 21 21 21 20 17 16 16 16 17 17 19
41 42 43 41 39 40 41 40 42 43 44 48 50 49 47 46 45 45 46 45 45 45 45 46 47 50 49 45 42 39 38 37 35 32 23 15 14 18 21 21 21 22 23 23 22 22 22 18 16 18 21 23
46 46 46 46 43 41 40 38 39 40 41 46 49 49 48 47 47 48 48 47 47 46 45 45 45 47 47 47 44 41 39 37 35 33 26 18 15 18 22 23 22 23 24 24 25 30 34 28 24 22 22 26
55 54 53 54 52 49 48 46 45 44 44 45 46 46 46 46 46 48 49 49 49 48 47 46 45 46 46 46 46 44 42 39 37 34 29 22 17 18 22 24 24 24 25 25 27 33 38 39 41 35 27 27
61 62 62 62 59 56 55 52 51 51 50 48 47 46 45 44 43 46 48 50 51 50 49 48 46 46 46 46 47 46 45 43 39 35 32 28 23 20 22 25 27 27 27 27 28 33 37 41 46 43 36 34
57 62 65 67 64 61 57 53 50 51 53 53 53 52 51 50 46 44 47 50 52 52 50 49 48 48 47 47 48 47 47 45 43 39 36 34 30 23 21 28 33 30 28 29 30 33 35 36 41 43 43 43
49 52 57 62 64 63 60 56 52 51 54 55 55 56 56 57 53 47 46 47 49 51 50 49 48 48 48 48 48 48 48 48 47 45 41 37 34 29 23 29 36 33 30 32 33 36 36 34 38 42 45 48
Wind_Speed
14 16 18 19 19 20 21 22 22 22 23 23 23 22 22 22 22 22 21 20 18 17 16 16 16 16 16 17 18 18 18 19 20 20 20 20 20 19 18 18 18 18 18 17 17 18 19 19 19 19 20 21
15 16 17 18 19 20 21 22 22 23 23 23 24 24 24 24 24 24 23 22 21 20 19 18 17 17 17 17 17 18 18 18 19 19 19 19 20 19 19 19 18 18 18 18 18 17 18 19 19 20 20 20
16 17 18 18 19 20 21 22 22 23 24 24 25 25 25 25 25 25 24 24 24 23 21 20 19 18 18 18 17 17 18 18 18 19 19 19 19 19 19 18 17 17 17 18 18 17 17 18 19 20 20 20
18 18 20 21 21 21 21 22 23 24 25 26 26 26 26 26 26 26 25 25 24 23 22 21 20 19 19 19 19 18 18 18 19 19 19 19 19 19 19 19 18 17 17 17 18 18 17 17 17 19 20 20
19 20 21 22 23 23 23 23 24 25 25 26 27 27 27 27 27 27 26 26 25 24 22 21 21 20 20 20 20 20 20 19 19 20 20 20 20 21 20 20 20 19 17 17 17 18 18 17 17 17 18 20
21 21 22 23 24 25 25 25 25 26 25 25 26 26 27 27 27 27 28 28 27 26 24 23 23 22 21 21 21 21 21 20 20 20 21 21 21 21 22 21 21 21 19 18 18 18 18 18 17 17 17 18
22 22 23 24 25 25 26 26 27 27 26 26 26 26 26 26 27 28 28 28 29 28 27 25 24 24 23 22 22 22 21 21 21 21 21 21 21 22 22 23 22 22 21 20 19 18 18 18 18 17 17 17
22 23 24 25 26 26 27 28 28 28 28 28 27 26 26 26 27 28 28 28 29 29 29 27 26 25 24 24 23 23 22 22 22 21 21 21 22 22 23 23 23 23 22 21 21 20 19 19 18 17 17 18
23 24 25 26 27 28 28 29 29 29 29 29 29 28 27 27 27 27 28 28 29 29 29 29 28 27 26 25 25 24 24 23 23 22 22 22 23 23 23 24 24 24 24 23 23 22 21 21 20 19 18 18
23 24 25 26 27 28 28 29 30 30 30 30 30 30 29 29 28 28 28 28 28 28 29 30 29 28 28 27 26 25 25 24 23 23 23 23 23 23 23 24 24 24 25 24 24 24 23 23 22 22 21 19
23 24 26 27 27 28 29 30 30 31 31 31 31 31 31 31 30 29 28 28 28 28 29 30 30 30 29 29 28 26 26 25 24 24 23 23 24 24 23 23 23 24 24 25 24 24 24 24 24 24 23 22
24 25 27 28 29 29 30 31 31 32 32 33 33 32 32 32 32 31 30 29 28 28 28 29 30 30 30 30 29 28 27 26 25 24 24 24 24 24 24 23 23 24 24 24 24 25 24 24 25 25 24 23
25 26 28 29 30 31 31 32 32 33 33 34 34 34 34 34 33 32 31 30 29 28 28 29 30 30 30 31 31 30 28 27 26 26 25 25 24 24 24 24 24 24 24 24 24 25 25 24 25 25 25 24
26 27 28 29 30 31 32 33 33 33 34 34 34 35 35 35 35 34 33 32 31 30 29 29 29 29 30 30 31 31 30 29 28 27 27 26 25 24 25 25 25 25 25 24 24 25 25 25 25 25 25 25
27 28 29 30 30 31 32 33 34 34 34 34 34 35 35 36 35 35 35 34 33 32 31 30 29 29 29 29 30 31 31 30 29 28 27 26 25 25 26 26 25 25 26 25 25 25 26 25 25 25 25 25
28 28 29 29 30 30 31 32 33 33 33 34 34 35 35 36 36 36 36 35 35 34 33 32 31 31 30 30 29 30 31 30 30 29 28 27 26 26 26 26 26 26 27 26 26 26 26 26 26 25 25 26
27 28 28 28 29 29 29 30 31 32 32 33 33 34 35 35 36 36 36 36 36 36 35 34 32 32 31 31 30 29 30 30 30 29 29 27 26 26 26 27 26 26 27 27 26 26 26 27 26 26 26 25
25 26 26 27 27 27 28 29 30 31 31 32 33 33 34 35 36 36 36 36 37 37 36 35 33 32 32 31 31 30 30 30 30 30 29 28 27 27 27 28 27 27 27 27 27 27 26 27 26 26 26 24
22 23 24 25 26 26 27 28 29 30 31 31 32 33 34 34 35 35 36 36 37 37 37 36 35 33 32 32 32 31 30 30 30 30 30 29 28 28 28 28 28 28 28 28 28 27 27 27 26 26 25 23
19 20 22 23 24 25 26 27 28 29 30 31 31 32 33 33 34 34 35 36 36 37 37 36 35 34 33 32 32 32 31 30 30 30 30 29 28 29 29 29 29 29 29 29 28 27 27 27 26 26 24 23
17 18 19 21 22 24 24 26 27 28 29 30 30 31 31 32 32 33 33 34 35 36 36 36 35 34 33 33 33 33 32 31 30 30 30 29 28 29 30 30 30 29 29 30 29 28 28 27 26 25 24 22
18 18 18 19 21 23 23 24 25 26 27 28 28 29 29 30 30 31 32 32 33 34 35 35 35 34 33 33 34 34 33 32 31 30 30 30 29 28 30 30 30 30 30 30 30 29 28 27 26 25 23 22
18 18 18 18 20 21 22 23 23 24 26 26 26 27 27 28 29 30 31 31 32 33 34 34 34 33 33 33 33 34 35 34 33 32 31 31 30 29 29 30 31 30 30 30 31 30 29 27 26 25 23 22
18 18 18 17 18 19 20 21 22 23 23 23 24 24 25 26 27 27 29 30 31 32 33 33 33 33 32 32 33 34 35 35 34 33 32 31 31 30 30 30 30 30 30 30 31 31 29 27 26 25 24 22
19 19 19 19 18 18 18 19 21 21 20 21 22 22 23 25 26 27 28 29 30 30 31 32 32 32 32 32 33 34 34 34 34 34 33 32 31 31 31 30 29 28 28 30 31 30 29 28 25 24 24 22
22 21 20 20 19 18 18 19 20 20 19 20 21 22 24 25 27 28 29 30 31 32 32 32 32 32 32 32 32 33 34 34 34 34 33 32 32 31 31 31 29 26 26 29 30 28 29 29 25 23 22 20
26 26 25 24 23 22 21 21 21 20 20 20 21 22 23 25 27 29 30 31 33 34 34 35 35 34 33 33 33 34 34 34 33 33 33 32 32 32 32 31 30 27 26 28 28 24 26 25 21 20 19 17
27 29 28 28 27 26 25 25 24 24 23 22 22 22 22 24 26 28 30 31 32 33 34 36 36 36 36 35 34 35 35 35 34 34 33 33 33 33 34 33 31 28 26 28 26 22 20 17 15 16 17 17
27 29 29 30 30 30 30 29 29 28 28 28 27 27 26 26 26 26 27 28 30 31 33 34 36 37 37 36 35 35 36 36 35 35 34 34 34 35 35 34 33 30 27 28 28 25 23 17 13 13 14 16
28 28 29 30 31 31 32 33 33 32 32 33 33 33 32 31 29 27 26 26 28 30 31 33 34 36 37 37 37 37 37 36 36 36 36 35 36 36 35 34 35 34 29 28 30 30 30 26 21 19 17 17
31 30 29 29 30 30 32 34 35 35 34 34 35 35 34 33 31 28 28 26 26 27 29 30 32 34 36 37 37 37 38 38 37 37 37 37 38 37 35 34 36 37 33 31 32 32 33 32 29 26 23 21
Wind_Direction
352 354 357 1 1 0 359 355 354 355 355 356 356 354 354 354 354 353 350 345 340 336 330 325 321 320 322 324 326 329 330 331 331 331 331 330 328 327 325 325 325 325 325 324 323 321 320 319 318 315 311 306
345 350 351 355 356 355 354 351 350 350 351 352 351 352 352 353 353 353 351 348 347 344 338 332 326 321 319 319 320 321 323 326 326 327 328 328 326 325 324 323 324 324 323 322 322 321 320 319 318 316 313 310
339 343 344 348 350 350 349 348 347 347 348 348 348 349 350 350 351 350 348 348 349 346 342 336 330 323 318 315 314 313 314 318 319 321 322 322 323 322 321 320 322 323 322 321 320 319 320 319 318 316 313 310
333 339 340 342 343 344 344 344 345 345 345 345 345 346 346 347 348 347 346 347 348 345 342 340 335 328 321 315 312 310 310 312 315 315 316 318 319 318 317 319 320 321 321 319 319 318 317 317 317 315 313 310
330 335 336 336 338 339 339 341 343 343 343 342 341 342 342 343 344 343 344 345 344 342 341 341 340 335 328 321 315 313 311 310 311 311 313 315 317 317 317 319 320 320 320 318 317 317 317 316 314 313 312 310
328 332 332 332 334 335 336 338 340 340 339 338 338 339 339 339 340 341 342 343 341 340 341 343 343 340 335 328 321 315 312 310 309 310 312 314 317 318 317 317 318 318 317 317 317 316 315 314 313 311 309 307
327 328 328 329 330 331 333 335 337 336 335 335 336 336 336 336 337 338 340 340 339 339 341 343 343 342 338 332 326 319 314 311 309 310 311 313 315 316 315 315 315 315 315 317 316 315 314 313 311 309 307 304
326 327 326 327 328 329 331 332 333 333 333 333 334 334 334 333 334 335 337 336 336 338 338 340 342 341 339 334 329 324 319 315 312 310 310 311 312 313 313 314 314 314 315 316 315 315 314 312 311 307 305 302
325 325 325 326 327 328 329 330 330 330 330 331 331 332 331 331 331 332 333 332 333 334 335 337 339 340 338 335 332 327 323 319 314 311 310 310 310 312 312 313 314 314 315 316 316 316 315 313 312 310 307 303
324 324 324 325 325 325 326 326 326 326 327 327 327 328 328 328 329 329 329 329 330 330 332 334 336 337 337 336 333 329 325 321 315 312 310 309 310 310 311 312 313 313 315 316 316 316 315 314 313 312 310 305
323 322 322 322 322 322 323 322 322 323 323 323 323 324 324 325 325 326 326 326 327 327 328 330 332 334 335 335 334 330 327 323 317 313 310 309 309 308 310 311 311 311 313 314 315 314 314 313 311 310 309 306
320 320 319 319 319 320 320 318 319 320 319 319 319 320 320 321 322 322 323 323 323 324 325 326 328 330 332 333 333 330 328 324 320 315 311 308 307 307 308 308 308 308 309 311 310 310 310 308 308 307 307 306
317 318 317 317 317 317 316 315 317 316 315 315 315 316 316 317 318 319 320 320 320 320 321 322 323 325 327 330 331 330 328 325 322 318 313 309 306 305 305 304 305 306 306 307 305 304 305 305 305 305 305 304
315 315 315 315 315 314 314 314 314 312 312 313 312 313 313 312 314 315 316 317 317 317 317 316 317 319 321 325 328 329 329 327 324 320 315 310 306 303 301 302 303 303 302 302 302 302 303 304 303 303 304 303
313 313 313 314 314 313 313 314 312 311 311 311 311 311 310 310 310 311 312 313 314 314 314 313 313 315 317 320 324 327 328 327 324 320 317 312 307 302 300 300 301 300 299 300 302 301 301 302 302 303 303 302
310 311 312 313 313 313 313 313 312 312 312 312 312 311 309 309 309 309 310 310 311 312 312 312 312 312 314 316 319 321 324 325 323 320 318 314 308 302 299 298 298 298 298 300 300 299 300 300 300 301 300 301
309 310 312 312 313 314 314 312 311 312 313 313 312 311 310 309 309 309 310 309 310 309 310 311 311 311 311 312 312 313 317 320 322 320 318 316 309 302 298 296 296 296 297 298 297 297 298 297 298 298 298 300
310 311 312 312 313 315 314 312 311 312 313 313 312 311 311 310 310 310 310 310 310 309 308 308 309 309 309 308 307 308 311 315 319 319 317 316 310 305 300 297 297 296 295 295 295 295 294 294 294 295 296 297
314 313 313 313 313 314 313 312 311 313 313 313 312 312 311 311 311 311 311 311 310 309 308 308 308 308 307 306 305 306 308 312 316 317 316 315 310 305 301 297 296 294 294 294 293 293 292 291 292 292 293 294
319 316 313 312 313 314 313 311 312 313 314 313 312 311 312 312 312 312 312 311 310 310 310 309 309 309 308 305 303 304 305 308 312 313 313 312 309 304 300 297 295 294 293 293 292 291 289 289 289 289 290 291
325 320 317 314 313 314 314 313 313 314 312 312 312 312 313 313 313 313 313 313 312 311 311 311 311 310 309 305 304 303 303 305 307 309 309 309 307 302 298 296 295 294 292 291 291 289 287 287 286 287 287 289
331 326 322 317 313 312 314 315 315 313 311 313 314 314 315 316 315 315 315 315 314 313 313 312 312 311 310 306 304 302 301 302 303 304 305 305 305 301 297 294 293 292 291 290 288 286 285 284 283 284 284 284
333 330 326 320 315 314 316 317 317 315 315 317 317 317 319 319 319 319 318 318 316 315 314 313 313 312 310 307 304 302 301 302 302 301 301 302 302 300 295 293 291 290 290 288 286 283 282 281 280 280 280 282
335 333 331 326 322 320 322 322 319 320 320 320 321 323 324 324 324 323 321 321 319 318 317 316 315 313 312 309 305 302 301 301 301 298 297 298 298 297 295 292 290 289 289 286 282 281 280 278 277 277 277 279
343 342 339 337 335 330 330 329 325 325 326 324 324 326 325 325 324 321 321 321 319 318 317 317 316 315 314 311 306 304 302 301 299 296 295 295 294 294 293 292 290 288 286 283 280 281 279 275 274 275 276 276
348 350 346 342 342 337 334 332 328 328 328 324 321 323 324 324 323 320 319 318 316 314 313 313 313 313 313 311 307 305 303 301 298 295 292 292 292 292 290 289 288 284 279 277 279 281 280 277 273 271 273 274
345 346 346 343 341 338 334 332 331 330 332 329 323 324 326 326 325 322 319 318 316 313 312 311 310 310 309 308 306 304 302 300 297 294 291 290 291 291 287 285 284 279 272 272 275 277 278 280 279 273 268 270
337 338 339 339 338 337 333 331 330 329 331 331 328 329 331 333 332 326 322 320 316 313 313 311 309 308 307 306 305 303 301 298 297 294 291 289 290 289 285 283 283 277 269 266 266 265 268 273 277 273 269 271
331 331 333 333 334 334 332 332 331 329 329 330 329 329 330 334 335 331 324 318 314 312 311 310 309 308 306 305 303 301 300 298 296 293 290 290 290 287 284 282 282 277 267 261 258 255 256 258 262 266 270 277
331 327 327 328 329 330 329 329 330 329 329 328 328 327 326 327 330 331 326 318 313 310 308 308 308 307 306 304 303 301 299 297 295 292 290 290 289 286 283 280 277 275 267 259 254 252 253 254 255 260 267 275
332 326 324 323 323 323 323 322 323 324 324 324 324 322 321 321 322 326 326 323 318 313 309 307 306 306 305 304 302 300 298 296 295 293 291 289 286 285 282 276 272 273 270 259 252 251 254 255 254 257 261 264